CAPE
0 1 1 1 0 0 0 0 0 0 0 0 0 0 0 0 0 0 0 0 6 6 5 2 0 0 0 0 0 0 55 262 478
0 0 0 0 0 0 0 0 0 0 0 0 0 0 0 0 0 0 0 0 1 1 1 0 1 0 0 0 0 0 0 0 14
0 0 0 0 0 0 0 0 0 0 0 0 0 0 0 0 0 0 0 2 4 0 0 0 0 0 0 1 3 3 0 0 0
0 0 0 0 0 0 0 0 0 0 0 0 0 0 0 0 0 0 0 1 0 8 35 38 33 6 0 0 0 2 4 5 2
0 0 0 0 0 0 0 0 0 0 0 0 0 0 0 0 0 0 1 25 56 36 27 39 43 44 40 32 0 28 15 21 23
0 0 0 0 0 0 0 0 0 0 0 0 0 0 0 0 0 0 17 30 29 26 5 2 10 32 36 39 32 36 37 39 30
0 0 0 0 0 0 0 0 0 0 0 0 0 0 0 0 0 0 5 3 29 27 8 2 2 22 31 29 16 14 22 33 40
0 0 0 0 0 0 0 0 0 0 0 0 0 0 0 0 0 0 0 3 5 10 13 6 1 2 26 29 8 2 5 6 4
0 0 0 0 0 0 0 0 0 0 0 0 0 0 0 0 0 0 0 0 0 7 7 7 3 3 5 13 5 14 9 5 3
0 0 0 0 0 0 0 0 0 0 0 0 0 0 0 0 0 0 0 0 0 0 1 3 5 6 5 18 6 12 6 2 4
0 0 0 0 0 0 0 0 0 0 0 0 0 0 0 0 0 0 0 0 0 0 0 0 1 1 4 5 9 2 5 6 6
0 0 0 0 0 0 0 0 0 0 0 0 0 0 0 0 0 0 0 0 0 0 0 0 0 1 1 6 8 4 6 1 1
0 0 0 0 0 0 0 0 0 0 0 0 0 0 0 0 0 0 0 0 0 0 0 0 0 0 0 2 8 7 0 0 1
0 0 0 0 0 0 0 0 0 0 0 0 0 0 0 0 0 0 0 0 0 0 0 0 0 0 0 0 0 0 0 0 0
0 0 0 0 0 0 0 0 0 0 0 0 0 0 0 0 0 0 0 0 0 0 0 0 0 0 0 0 0 0 0 0 0
0 0 0 0 0 0 0 0 0 0 0 0 0 0 0 0 0 0 0 0 0 0 0 0 0 0 0 0 0 0 0 0 0
0 0 0 0 0 0 0 0 0 0 0 0 0 0 0 0 0 0 0 0 0 0 0 0 0 0 0 0 0 0 0 0 0
0 0 0 0 0 0 0 0 0 0 0 0 0 0 0 0 0 0 0 0 0 0 0 0 0 0 0 0 0 0 0 0 0
0 0 0 0 0 0 0 0 0 0 0 0 0 0 0 0 0 0 0 0 0 0 0 0 0 0 0 0 0 0 0 0 0
0 0 0 0 0 0 0 0 0 0 0 0 0 0 0 0 0 0 0 0 0 0 0 0 0 0 0 0 0 0 0 0 0
CIN
0 0 0 0 0 0 0 0 0 0 0 0 0 0 0 0 0 0 0 -1 0 -1 -1 0 0 0 0 0 0 0 -69 -2 0
0 0 0 0 0 0 0 0 0 0 0 0 0 0 0 0 0 0 0 0 0 -1 0 -1 0 0 0 0 0 0 0 0 -86
0 0 0 0 0 0 0 0 0 0 0 0 0 0 0 0 0 0 0 -1 0 0 0 0 0 0 0 0 0 0 0 0 0
0 0 0 0 0 0 0 0 0 0 0 0 0 0 0 0 0 0 0 -1 0 0 0 0 0 0 0 0 0 0 0 0 0
0 0 0 0 0 0 0 0 0 0 0 0 0 0 0 0 0 0 -1 -2 -1 -1 -5 -2 0 0 0 0 0 0 0 0 0
0 0 0 0 0 0 0 0 0 0 0 0 0 0 0 0 0 0 -12 -6 -3 -2 0 0 0 0 0 0 0 0 0 0 -1
0 0 0 0 0 0 0 0 0 0 0 0 0 0 0 0 0 0 -5 -1 -2 0 0 0 0 0 0 0 -1 -1 0 0 -1
0 0 0 0 0 0 0 0 0 0 0 0 0 0 0 0 0 0 0 0 -1 -1 0 0 -2 -1 0 0 -1 -16 -9 -4 -1
0 0 0 0 0 0 0 0 0 0 0 0 0 0 0 0 0 0 0 0 0 0 0 0 0 -1 -1 0 -2 -2 -2 -2 0
0 0 0 0 0 0 0 0 0 0 0 0 0 0 0 0 0 0 0 0 0 0 0 0 0 0 0 -2 -1 -2 -1 -1 -1
0 0 0 0 0 0 0 0 0 0 0 0 0 0 0 0 0 0 0 0 0 0 0 0 0 0 0 0 -1 0 -1 -1 -1
0 0 0 0 0 0 0 0 0 0 0 0 0 0 0 0 0 0 0 0 0 0 0 0 0 0 0 -1 -1 0 -1 0 -1
0 0 0 0 0 0 0 0 0 0 0 0 0 0 0 0 0 0 0 0 0 0 0 0 0 0 0 0 0 0 0 0 0
0 0 0 0 0 0 0 0 0 0 0 0 0 0 0 0 0 0 0 0 0 0 0 0 0 0 0 0 -1 0 0 0 -1
0 0 0 0 0 0 0 0 0 0 0 0 0 0 0 0 0 0 0 0 0 0 0 0 0 0 0 0 0 0 0 0 0
0 0 0 0 0 0 0 0 0 0 0 0 0 0 0 0 0 0 0 0 0 0 0 0 0 0 0 0 0 0 0 0 0
0 0 0 0 0 0 0 0 0 0 0 0 0 0 0 0 0 0 0 0 0 0 0 0 0 0 0 0 0 0 0 0 0
0 0 0 0 0 0 0 0 0 0 0 0 0 0 0 0 0 0 0 0 0 0 0 0 0 0 0 0 0 0 0 0 0
0 0 0 0 0 0 0 0 0 0 0 0 0 0 0 0 0 0 0 0 0 0 0 0 0 0 0 0 0 0 0 0 0
0 0 0 0 0 0 0 0 0 0 0 0 0 0 0 0 0 0 0 0 0 0 0 0 0 0 0 0 0 0 0 0 0
Wind_Speed
22 23 23 24 24 24 24 24 24 25 24 24 24 24 23 23 23 24 24 22 23 23 23 23 23 22 21 21 20 20 20 21 22
22 23 23 24 24 24 24 24 24 24 24 24 23 22 22 22 22 22 22 22 23 23 23 22 22 22 21 21 21 20 19 18 19
22 23 23 24 24 24 24 24 24 24 24 23 23 21 21 22 22 22 22 22 23 24 23 22 23 22 22 22 21 21 20 19 19
22 22 23 23 23 23 23 24 23 23 23 23 23 22 21 21 22 21 22 22 23 23 23 24 23 23 23 22 21 21 21 21 21
21 22 22 23 22 22 23 23 23 23 23 23 22 20 21 21 22 22 22 21 23 24 25 26 27 26 24 23 21 24 22 22 22
20 21 22 22 23 22 22 22 22 22 22 22 21 19 20 20 21 22 23 23 24 24 23 23 24 26 26 25 25 25 25 25 25
20 21 21 22 22 22 22 22 22 21 21 21 20 18 19 20 21 22 22 23 24 24 23 24 23 24 24 25 25 27 28 28 27
19 20 21 21 21 22 22 22 21 21 21 21 20 18 18 20 21 22 23 22 22 24 24 24 24 23 24 24 24 27 28 27 26
19 19 20 21 21 21 22 22 21 22 21 21 20 17 18 19 21 22 23 23 23 23 24 24 24 23 23 24 26 27 26 26 26
18 19 19 20 21 21 22 22 22 22 22 21 20 18 18 19 20 21 22 22 23 24 25 25 24 24 23 24 25 25 26 26 26
17 18 19 20 21 21 22 22 22 21 22 21 20 18 17 18 19 20 21 22 24 25 25 25 25 25 25 24 24 25 26 26 26
17 17 18 20 20 20 21 22 23 21 21 21 21 19 17 18 19 20 21 22 24 25 26 25 24 25 25 25 25 25 27 27 27
16 17 18 19 20 20 21 22 23 23 21 20 20 19 18 19 19 20 21 23 24 25 26 25 25 26 26 26 26 26 28 28 28
16 16 17 18 20 20 20 22 23 24 22 21 19 19 19 19 19 21 21 23 24 24 25 26 26 26 26 26 26 27 28 29 29
15 16 17 18 19 21 20 21 23 25 25 21 20 19 19 19 20 21 22 23 24 25 26 26 26 26 26 26 27 28 29 30 30
15 16 17 18 19 21 22 21 23 26 27 23 23 21 20 21 22 22 22 23 25 26 29 26 26 27 28 27 27 28 29 31 31
15 15 16 18 18 20 22 23 22 24 27 26 24 25 23 21 24 22 23 23 25 29 31 27 30 30 29 27 27 28 30 31 32
14 15 16 18 19 20 22 23 24 26 25 26 25 26 26 28 23 23 24 24 28 32 31 31 33 33 31 29 29 29 30 32 32
14 15 16 18 19 20 22 23 24 25 27 25 26 24 24 28 30 25 26 28 33 36 33 34 35 34 33 34 32 30 30 32 33
15 16 17 18 19 21 23 24 25 25 26 26 27 26 27 26 29 35 33 36 34 36 35 37 37 37 37 39 35 32 32 34 36
Wind_Direction
35 37 37 37 35 32 30 30 32 36 42 46 43 47 51 47 42 34 27 37 30 28 25 21 19 19 20 19 18 18 15 9 2
37 37 36 37 37 35 34 33 35 39 44 44 45 49 50 47 43 34 27 27 26 24 22 22 21 22 21 18 16 15 17 15 10
40 38 37 38 37 36 36 36 39 44 47 44 45 51 53 45 40 34 28 24 23 17 20 22 21 19 16 15 17 16 17 15 12
36 34 35 35 37 39 41 41 43 44 45 43 41 46 46 40 34 31 25 26 23 25 22 18 18 21 22 23 23 17 16 10 8
28 31 34 29 38 41 45 46 47 45 42 39 40 42 36 33 28 23 22 25 21 14 10 5 7 13 20 25 29 18 20 14 9
27 29 29 28 31 38 44 46 47 46 41 37 35 37 32 28 22 18 15 15 11 12 14 12 15 18 21 25 24 21 21 17 9
31 30 28 24 30 33 40 42 43 44 42 35 29 32 27 21 16 10 6 9 9 12 12 12 13 11 15 17 14 10 6 6 6
25 27 25 25 23 27 32 33 36 38 39 33 29 32 24 19 13 7 7 7 7 4 4 7 8 12 10 11 10 3 358 2 3
22 24 26 22 23 22 25 28 29 29 34 32 30 35 26 17 11 7 6 5 6 4 3 3 4 7 8 7 4 1 1 0 1
23 22 22 19 20 20 19 18 18 20 23 27 28 31 26 18 9 4 2 1 357 356 356 356 360 3 4 2 2 1 1 0 359
21 19 18 16 15 17 16 15 16 17 17 22 24 27 25 16 7 2 359 356 351 349 349 350 355 356 357 358 359 -0 359 358 357
21 19 16 13 12 16 14 13 12 14 16 18 18 21 21 11 4 360 357 352 350 348 347 349 352 352 354 354 356 357 355 355 354
21 18 16 15 13 12 11 8 8 8 9 9 10 11 11 7 1 357 355 352 349 349 349 350 349 349 349 350 352 352 351 351 350
18 17 17 15 11 7 9 7 4 3 3 3 6 6 5 2 359 354 351 351 347 347 348 349 349 348 348 348 348 348 347 347 346
14 13 13 9 8 3 4 0 358 358 356 358 357 358 358 356 353 349 348 346 345 346 345 346 347 347 346 344 343 343 342 341 340
9 8 8 4 3 359 357 358 355 351 351 352 350 350 349 347 344 342 343 343 341 344 341 341 342 340 339 340 340 339 338 336 336
4 3 1 1 360 356 355 353 350 349 349 347 346 342 342 344 341 342 339 340 342 339 338 340 337 335 334 334 335 334 334 332 332
359 359 357 356 354 353 351 348 346 343 346 348 345 338 334 334 339 336 336 336 333 334 335 334 334 334 331 328 327 326 327 327 327
354 353 352 350 349 348 345 345 344 343 340 342 343 342 337 330 326 332 330 329 326 327 329 328 329 329 328 325 321 319 320 321 321
348 348 348 348 345 343 342 341 341 342 339 338 336 336 334 334 327 319 321 321 324 324 324 323 323 324 324 321 319 315 313 314 314